GFSNGP_850_thetae_000.txt.gz
Theta_e
316 315 315 315 315 315 316 316 318 318 316 316 315 314 314 314 313 313 312 311 310 309 307 306 305 304 304 303 299 298 298 297 296 295 294 294 293 292 291 290 289 288 288 288
315 314 314 315 315 315 315 316 316 316 316 314 312 313 314 313 312 312 311 309 307 305 303 303 303 303 303 300 299 298 297 295 294 293 293 291 291 290 289 288 288 288 287 287
320 313 315 318 315 315 315 315 315 316 315 313 314 313 313 312 311 310 308 306 303 302 302 302 303 304 301 299 298 298 296 294 294 293 291 290 289 288 288 288 287 287 287 287
319 316 321 315 313 313 314 314 314 313 313 313 313 313 312 310 308 306 304 303 302 301 301 301 303 302 300 298 298 296 295 294 294 292 290 289 288 288 287 287 287 287 286 286
316 315 315 314 313 313 313 314 313 314 313 313 312 311 311 306 305 305 303 302 301 300 300 301 302 300 299 298 297 295 294 294 293 291 290 288 288 287 287 287 286 286 286 285
315 316 317 315 311 310 312 315 313 312 312 310 311 313 309 306 304 301 301 301 299 298 299 301 301 299 299 298 297 295 294 294 292 291 289 288 288 288 287 287 286 286 285 284
315 315 315 313 311 310 316 317 312 310 309 309 308 306 305 303 301 300 299 299 298 297 297 298 299 298 298 297 294 293 292 292 292 291 289 288 288 288 287 287 286 285 283 282
313 314 315 310 311 314 314 310 309 308 308 307 306 304 302 300 299 298 299 298 297 296 296 296 297 297 297 294 293 293 292 292 291 290 289 288 288 287 287 287 285 284 283 282
314 316 313 312 311 311 310 309 310 308 306 305 303 301 299 298 298 298 298 296 295 295 295 295 296 297 295 293 293 292 292 291 290 289 289 288 288 287 287 286 284 283 283 282
314 313 313 313 312 311 310 309 307 305 304 301 300 298 298 298 297 297 296 295 295 294 294 294 295 296 294 293 292 291 291 290 290 289 288 288 287 287 286 285 283 282 282 281
313 313 313 311 311 309 307 308 305 303 301 299 297 297 297 296 295 294 294 294 294 293 293 293 293 295 293 291 290 290 289 289 289 288 288 288 287 285 284 283 281 280 279 279
313 312 311 311 308 307 307 306 302 300 298 297 297 297 296 294 294 294 293 293 293 293 293 292 292 291 291 289 289 288 287 288 288 287 288 287 285 285 284 282 280 278 278 277
312 310 309 308 307 305 304 301 299 297 298 298 297 295 294 294 294 293 294 293 293 293 292 292 291 290 289 289 288 287 287 287 287 287 286 286 285 284 283 282 280 279 278 276
307 307 306 305 305 301 300 298 298 298 297 296 295 295 294 294 294 293 294 294 294 293 292 290 289 289 289 288 287 287 286 286 286 286 285 284 284 282 282 281 281 280 278 276
305 306 305 302 301 300 299 299 298 296 296 296 295 295 294 294 293 293 293 293 292 291 291 290 290 289 288 287 286 285 285 285 286 285 284 284 283 282 281 281 280 280 278 277
302 302 301 300 299 298 297 295 295 295 294 294 293 293 293 293 292 292 293 292 291 290 290 289 289 289 288 287 286 285 284 284 285 284 283 283 282 281 281 280 280 279 278 276
301 300 299 298 296 295 294 294 294 293 292 292 292 292 292 292 292 292 292 292 291 291 289 289 289 288 288 286 285 285 284 284 284 284 283 282 281 281 280 280 279 279 278 275
298 296 294 294 294 294 294 293 291 291 292 292 292 292 292 292 292 292 292 292 291 290 289 289 289 288 287 284 284 283 284 283 283 283 282 282 281 280 280 279 279 278 277 276
292 292 292 291 292 292 292 291 291 292 291 291 291 291 291 291 291 291 291 291 291 290 289 289 289 287 285 283 283 283 283 283 283 283 282 282 281 281 280 279 279 278 277 276
292 291 291 292 293 292 292 292 292 291 291 291 291 291 291 290 291 291 291 291 291 289 289 289 287 285 284 283 283 283 283 282 282 282 282 282 281 281 280 279 279 278 277 276
291 291 292 292 292 292 292 292 292 291 291 291 290 290 290 289 290 291 291 291 290 290 289 288 287 285 284 283 283 283 282 282 282 282 282 281 282 281 281 280 279 278 277 277
291 291 292 293 292 292 292 291 291 291 291 291 290 290 289 289 290 290 290 291 290 289 289 289 287 286 284 283 283 283 283 282 282 282 282 281 282 282 282 281 280 279 278 277
291 293 293 293 293 293 292 291 290 290 291 290 290 290 290 289 290 290 290 290 290 289 290 289 287 285 284 283 283 283 283 282 282 282 282 282 282 282 282 281 281 280 279 277
292 293 293 293 293 292 292 291 290 290 290 290 289 289 289 289 289 290 290 290 290 290 290 288 287 286 284 283 283 283 282 282 282 282 282 282 282 282 282 281 281 280 280 279
292 293 293 293 292 292 291 291 290 290 289 289 289 289 289 289 290 289 289 290 290 290 289 288 287 286 285 284 283 283 282 283 283 283 282 282 282 282 281 281 281 280 280 280
292 293 293 292 292 292 291 290 289 289 289 289 289 289 289 289 289 289 290 289 289 289 289 288 288 286 285 284 283 282 282 282 283 282 282 282 282 282 281 281 281 281 280 280
292 292 291 291 291 291 290 289 288 288 288 288 288 288 288 289 289 289 289 289 289 288 288 288 287 286 284 283 283 282 282 282 282 282 282 282 282 282 281 281 281 281 280 280

GFSNGP_850_thetae_003.txt.gz
Theta_e
318 316 315 315 316 316 316 316 319 319 318 317 317 316 315 315 314 314 313 313 312 310 308 306 305 305 304 305 304 303 301 300 298 296 295 295 294 293 292 291 290 289 289 289
317 316 315 315 315 315 316 317 317 317 317 317 315 315 315 314 314 313 312 311 309 307 305 304 304 303 303 304 302 302 301 299 297 295 295 294 292 291 290 290 289 289 289 289
320 317 317 320 318 316 316 316 317 317 316 315 315 314 313 312 313 312 309 308 307 305 304 303 302 301 302 302 301 300 299 298 296 295 295 293 292 290 290 289 289 289 289 288
320 317 324 318 316 315 315 315 315 315 315 315 314 313 313 311 309 308 307 306 305 303 302 300 299 300 301 301 300 299 298 297 296 295 294 293 291 290 289 289 289 289 288 288
320 318 316 316 315 315 315 315 315 316 316 314 313 312 312 310 308 306 305 304 302 301 299 298 298 298 299 299 299 298 298 297 296 295 294 293 291 290 289 289 289 288 288 287
318 318 319 318 315 313 314 316 315 315 314 311 311 313 311 307 306 304 302 301 300 300 298 297 297 297 297 297 297 298 296 295 294 294 293 292 291 290 289 289 289 288 287 286
316 318 316 315 313 313 317 318 315 312 311 311 310 309 307 305 303 301 300 300 299 298 297 296 296 296 296 296 297 296 294 294 294 293 293 291 290 289 289 289 288 287 286 285
316 317 316 313 313 316 315 314 313 311 311 309 308 306 304 302 300 300 299 299 298 296 296 295 295 295 295 295 296 295 294 294 293 292 291 290 289 289 289 288 288 286 285 284
317 317 314 314 313 314 313 312 311 310 309 307 306 303 301 300 300 299 298 297 296 295 295 294 294 294 293 295 296 294 293 293 292 291 290 289 289 288 288 288 287 285 284 283
316 314 313 313 314 313 312 311 309 308 308 305 303 301 300 299 299 297 296 296 295 294 294 294 294 293 293 294 294 293 292 291 291 290 290 289 288 288 287 286 285 284 282 282
317 314 313 313 313 312 311 309 308 307 305 303 301 300 300 299 297 296 296 295 294 294 294 294 294 293 293 292 292 291 290 290 289 289 289 289 288 287 286 285 284 282 280 279
318 314 313 313 311 311 310 309 308 304 302 301 300 300 298 297 296 296 295 294 294 294 294 294 294 293 292 292 290 289 289 289 289 289 288 288 287 287 286 284 283 282 281 279
314 312 311 310 308 308 307 305 303 301 301 300 299 297 297 296 296 295 295 294 294 294 294 294 293 291 290 290 289 288 287 287 288 288 287 287 286 285 285 284 283 282 281 279
310 310 309 308 308 306 304 302 301 301 299 297 297 296 295 295 294 294 294 294 294 294 293 293 292 291 291 290 288 287 287 287 287 287 287 286 285 284 283 283 283 283 281 280
308 308 308 307 305 303 301 300 299 297 296 296 295 294 294 293 293 293 294 293 293 291 292 292 292 291 290 289 288 287 286 285 286 286 286 285 284 283 283 283 283 282 281 280
307 306 304 303 301 300 298 297 296 296 295 294 294 293 293 293 293 293 292 293 292 291 291 291 290 290 288 288 288 288 287 285 284 285 285 284 284 283 283 282 282 282 281 280
305 304 302 300 298 297 296 296 295 294 294 293 293 291 291 291 291 291 291 291 291 291 292 290 290 289 288 288 287 287 287 286 285 284 284 284 283 283 282 282 282 281 281 279
303 300 297 296 296 295 295 295 294 294 293 292 291 291 291 291 291 291 291 290 291 291 291 290 290 289 289 287 286 285 284 285 285 284 284 283 283 283 282 282 281 281 280 280
297 296 295 295 295 295 294 294 293 292 292 291 291 291 291 291 290 290 289 290 291 291 291 290 289 289 288 285 284 284 284 284 284 284 284 283 283 283 282 282 281 280 280 279
295 294 294 294 292 292 292 292 292 292 291 291 291 291 291 291 290 290 289 290 291 291 290 290 289 288 286 285 284 284 284 284 284 284 283 283 282 282 282 282 281 280 280 280
293 292 291 290 291 292 292 292 292 292 291 290 290 291 291 290 290 290 290 290 290 290 290 289 289 287 286 286 284 284 284 284 284 284 284 283 282 282 282 282 282 281 280 280
293 292 290 291 292 293 292 292 292 292 291 290 290 290 290 289 289 290 290 290 290 290 290 289 289 288 286 285 284 284 283 283 283 283 283 283 283 282 282 282 282 281 280 280
290 290 291 292 292 292 293 292 292 291 291 291 290 289 289 289 289 289 289 290 290 290 290 289 289 287 285 285 284 284 283 283 283 283 283 283 282 283 282 282 282 281 280 280
291 292 292 292 292 293 292 291 293 292 291 290 290 290 289 289 289 289 290 289 289 289 290 289 289 287 287 285 285 284 284 283 283 283 283 283 283 282 282 282 282 281 281 280
291 292 292 292 293 293 293 293 293 292 292 291 290 290 289 288 288 289 289 289 289 289 290 290 289 288 287 286 285 284 283 283 283 283 283 283 282 282 282 282 282 281 281 280
293 293 293 293 293 293 293 293 293 292 291 290 289 289 288 288 288 289 289 289 289 289 289 289 289 288 287 287 285 284 283 283 283 283 283 283 283 282 282 282 282 281 281 281
293 293 293 294 293 293 293 292 291 290 289 289 288 288 288 288 288 288 289 289 289 288 289 289 288 288 288 287 285 284 283 282 282 282 282 282 282 282 282 282 281 281 281 281

GFSNGP_850_thetae_006.txt.gz
Theta_e
318 316 316 316 316 316 316 317 318 319 317 317 317 317 315 315 314 314 314 313 311 309 308 307 305 304 303 303 303 304 303 302 300 300 298 296 295 294 293 291 290 290 289 289
318 316 316 316 315 315 315 316 316 317 317 317 316 315 315 314 313 313 312 310 308 307 306 305 304 302 301 300 301 303 301 301 300 299 297 296 295 293 292 291 290 289 289 289
322 317 317 322 320 317 316 316 316 318 317 316 316 315 314 313 313 311 309 307 306 305 304 302 300 299 299 299 299 300 300 300 299 298 297 296 295 293 292 291 290 289 289 289
320 318 324 319 316 316 316 316 315 315 316 316 315 313 313 312 310 308 307 306 304 302 301 300 299 298 297 297 297 297 298 299 298 298 296 295 295 294 291 290 289 289 289 289
322 318 317 316 316 316 315 316 315 317 316 315 313 312 311 309 307 306 304 303 301 301 300 299 298 297 296 296 296 296 296 298 297 295 295 294 294 293 291 290 289 289 289 288
316 317 318 318 316 314 314 317 317 316 314 313 312 313 310 308 306 304 302 301 300 299 298 297 297 296 295 295 295 295 296 296 295 294 294 294 293 292 290 289 289 289 288 288
317 316 317 315 314 314 316 318 315 314 313 312 311 310 308 306 303 301 301 300 299 298 297 296 295 295 295 294 294 295 295 295 294 294 293 292 292 290 290 289 289 288 288 286
316 316 316 314 314 315 317 315 314 313 311 311 309 309 306 304 301 301 300 299 297 297 296 295 295 295 294 294 294 294 293 294 293 293 292 292 290 290 289 288 288 288 286 284
318 318 315 315 314 314 314 314 312 311 310 308 308 307 304 301 301 300 299 297 297 296 295 295 295 295 294 294 294 293 292 292 292 291 291 290 290 289 288 288 287 286 284 283
319 316 315 314 313 314 313 312 311 310 309 308 306 303 301 301 300 299 297 297 296 295 295 295 294 294 294 294 293 293 292 291 291 290 290 289 289 288 288 287 286 285 283 281
317 316 315 315 313 313 312 310 310 309 308 305 303 301 301 299 298 297 297 296 295 295 294 294 294 294 294 293 292 291 291 290 289 289 289 289 288 288 287 286 286 284 282 282
318 316 316 315 312 311 310 309 308 307 304 302 302 300 298 297 297 296 295 294 294 294 294 294 294 294 293 292 291 290 289 288 288 288 288 287 288 287 286 285 285 283 283 282
314 314 314 312 311 309 308 306 305 303 302 301 299 297 297 296 295 294 294 294 294 294 294 294 293 293 292 292 291 289 288 287 287 287 288 288 287 286 285 284 283 283 283 281
312 312 311 310 309 308 305 304 302 301 299 297 297 296 295 294 294 294 293 293 293 293 293 293 292 293 292 291 290 289 288 287 286 286 286 286 286 285 284 283 283 283 282 282
310 310 309 308 308 305 303 301 299 298 297 296 295 294 294 294 293 292 292 291 292 292 291 291 291 291 290 290 290 289 288 288 287 286 285 285 284 284 284 283 283 282 282 282
309 308 307 305 303 302 300 298 297 297 296 295 294 293 293 291 291 291 291 291 290 290 289 290 290 291 290 289 289 288 287 288 287 285 285 284 284 284 283 283 282 282 282 281
308 306 304 303 301 298 297 297 297 296 293 293 292 292 291 291 291 291 291 290 290 289 290 290 290 291 289 289 288 287 287 287 286 285 284 284 284 283 283 282 282 282 281 281
306 304 301 298 297 296 296 296 294 293 292 292 292 291 291 290 291 291 291 290 290 289 289 290 291 290 289 289 287 287 287 285 284 284 284 284 283 283 282 282 282 282 281 281
300 298 297 296 296 295 294 292 292 292 292 291 292 291 290 290 290 291 290 290 290 290 290 290 290 290 289 288 286 285 284 284 284 284 284 284 283 283 282 282 282 282 281 281
297 296 295 294 293 291 290 291 292 292 292 292 292 291 290 290 290 290 289 289 290 290 290 290 290 289 289 288 285 284 284 284 284 284 284 284 283 283 283 282 282 282 281 281
294 294 294 293 290 290 290 292 292 292 292 292 291 291 291 290 290 288 289 289 289 290 290 290 290 289 289 287 287 286 285 284 284 284 284 284 284 283 283 282 282 282 282 281
294 293 290 289 290 291 291 292 292 292 292 291 291 291 291 289 289 289 288 289 290 290 290 289 289 289 289 287 287 286 285 284 284 284 284 284 284 284 283 282 282 282 281 281
293 290 290 291 291 291 292 291 292 292 291 292 292 292 290 290 289 289 288 289 289 290 289 289 289 288 288 288 286 285 285 284 283 283 283 283 283 283 282 282 282 281 281 280
292 291 291 291 292 292 292 292 293 293 293 293 293 292 291 290 289 289 288 288 289 288 288 289 289 289 289 288 287 286 286 285 284 283 283 283 283 283 283 282 282 282 281 280
292 291 291 292 293 293 293 294 293 293 292 292 291 290 290 289 289 288 288 288 288 288 288 289 289 288 288 289 288 287 286 285 284 283 283 283 283 283 283 282 282 282 282 281
292 293 293 293 293 293 292 292 292 292 292 292 291 290 289 288 288 288 288 287 287 288 288 288 288 288 288 288 288 288 287 286 285 284 283 283 283 283 283 283 282 282 282 281
293 293 293 294 293 292 292 292 292 292 292 291 290 288 288 287 287 287 287 287 287 287 288 288 288 288 288 288 288 288 287 286 285 284 283 283 282 282 282 282 282 282 281 281

GFSNGP_850_thetae_009.txt.gz
Theta_e
316 315 315 315 314 314 314 314 313 313 316 316 314 314 314 313 313 312 311 309 308 306 305 304 303 301 300 299 299 298 297 298 299 300 300 298 298 296 295 294 291 290 290 289
316 316 314 314 313 313 313 314 314 315 315 314 315 314 313 313 311 309 307 307 306 304 304 302 301 300 299 298 297 297 296 296 296 299 299 298 297 296 294 293 291 290 289 289
315 314 313 311 315 316 315 315 315 314 315 314 312 312 312 310 308 307 306 304 302 303 301 300 299 298 297 296 296 295 295 295 297 296 296 296 295 295 294 294 291 289 289 289
307 306 309 317 314 314 315 314 313 315 313 312 311 311 310 308 307 305 304 302 301 300 299 298 297 297 296 295 295 294 294 295 295 295 295 295 295 294 293 291 290 290 289 289
309 310 311 314 315 314 313 313 315 314 313 312 311 310 308 307 305 304 302 301 300 299 298 297 296 296 295 295 294 294 294 295 294 294 294 294 294 293 291 290 290 289 289 288
308 305 305 312 314 314 314 310 315 314 312 311 311 305 307 307 305 303 301 300 299 298 297 296 295 295 295 294 294 294 294 294 293 293 293 293 292 292 290 289 289 288 288 288
311 302 308 312 314 313 312 310 315 314 312 311 309 309 309 306 303 301 300 300 298 297 296 295 295 295 295 295 294 294 294 293 292 292 292 292 291 290 289 289 288 288 288 287
309 307 309 312 313 310 311 315 314 312 311 310 309 308 307 303 302 301 300 298 297 296 296 295 295 295 294 294 294 294 293 293 292 291 291 291 290 290 289 288 288 288 287 285
309 308 310 314 314 313 314 314 312 312 310 308 308 307 304 302 301 299 298 297 296 296 295 295 295 294 294 294 294 294 293 292 291 290 290 289 289 289 288 288 287 287 285 284
312 314 315 314 314 314 314 313 310 310 308 307 307 304 302 301 298 297 296 296 295 294 294 294 294 294 294 294 293 293 291 290 290 289 289 289 289 288 288 287 287 285 284 283
310 314 314 314 314 313 312 311 311 310 307 307 303 301 299 297 297 296 295 294 294 293 293 293 294 294 293 293 292 292 291 290 289 288 287 287 287 287 287 287 285 284 283 283
308 314 314 313 313 312 312 310 309 308 304 302 301 298 297 296 295 295 294 294 293 292 291 292 293 293 291 292 292 292 291 289 288 287 287 287 288 287 287 286 284 283 283 282
313 314 314 313 311 310 309 307 304 304 302 299 297 297 296 296 295 294 292 291 291 291 291 291 291 292 291 291 292 291 290 289 288 287 286 286 286 286 286 284 283 283 282 282
313 313 311 310 309 309 305 304 303 301 298 297 296 296 295 294 292 291 290 290 290 290 290 290 289 290 290 291 291 290 290 289 288 288 287 285 285 284 284 283 283 282 282 282
312 312 310 310 308 306 304 302 299 297 297 296 296 294 292 291 291 290 290 290 290 290 290 290 289 289 289 290 289 289 288 288 288 287 287 285 284 284 283 283 283 282 282 281
310 309 309 307 304 301 299 298 297 297 296 296 292 291 291 291 291 290 290 290 290 290 290 290 288 289 290 290 289 288 288 287 287 287 286 284 284 284 283 283 282 282 281 281
309 307 305 303 301 298 297 297 297 296 295 291 291 291 291 291 290 290 290 290 290 290 290 290 290 290 289 290 288 288 287 287 287 286 285 284 284 283 283 282 282 282 282 281
308 305 303 301 298 297 296 296 294 291 291 291 291 291 291 291 291 290 290 290 290 289 289 289 290 289 290 290 288 288 287 286 286 285 284 284 284 283 282 282 282 282 282 281
302 299 298 298 296 295 294 291 290 290 291 292 291 291 291 291 291 290 290 289 288 288 289 289 290 290 290 289 289 288 286 284 283 284 283 284 284 284 283 282 282 282 281 281
297 297 296 295 294 292 290 289 290 291 291 291 291 291 291 291 291 290 289 288 288 288 289 289 289 289 289 289 289 287 286 285 283 283 283 283 284 283 283 283 282 282 282 282
296 295 294 293 291 289 290 291 291 291 291 291 291 291 291 291 291 289 289 289 288 288 290 289 289 289 289 289 288 287 287 286 285 284 284 284 284 284 283 283 282 282 282 281
294 294 292 290 290 290 291 291 291 291 291 291 291 292 292 292 291 290 289 289 288 288 288 288 288 288 289 288 288 287 286 286 285 284 283 283 283 283 283 284 282 282 281 281
294 293 291 291 291 291 291 291 291 292 292 293 293 293 292 291 290 290 289 289 288 287 287 287 288 288 288 288 287 287 287 286 285 285 284 283 283 283 283 283 282 281 281 281
293 292 291 291 291 291 291 291 292 293 293 293 293 292 292 291 290 289 289 288 288 287 287 287 287 288 288 288 288 288 288 287 287 286 285 284 283 283 283 283 283 283 282 281
291 291 291 291 291 291 292 292 292 291 292 292 292 292 292 290 289 288 288 287 287 287 287 287 287 287 288 288 288 288 288 288 288 287 287 285 284 283 283 283 283 282 282 281
292 292 292 292 293 293 292 291 292 292 292 292 292 292 291 289 288 287 287 287 286 287 287 287 287 287 287 287 288 288 288 288 288 288 287 286 285 283 283 282 282 282 281 281
293 293 292 292 291 291 291 291 291 291 291 292 291 290 289 288 287 287 287 286 286 286 286 286 286 287 287 287 287 287 287 288 288 287 287 286 285 284 283 282 282 281 281 281

GFSNGP_850_thetae_012.txt.gz
Theta_e
314 314 314 314 314 313 313 313 313 312 313 315 313 311 312 312 311 311 310 307 303 303 303 302 301 300 299 298 298 297 296 295 294 293 294 294 294 294 296 293 293 290 290 290
315 314 314 313 312 312 312 312 313 313 315 313 313 313 312 310 310 308 306 303 302 302 302 300 299 298 298 297 296 295 294 294 294 293 294 293 293 294 295 294 291 292 291 289
311 310 311 309 313 315 314 313 313 312 313 311 311 311 310 309 308 307 304 302 302 301 299 298 298 297 296 295 295 294 294 294 294 294 293 292 293 294 294 294 292 291 290 289
304 302 305 313 312 312 313 313 313 312 311 310 311 310 309 308 307 305 303 301 300 299 298 297 297 296 295 295 294 294 294 294 294 294 293 292 293 292 293 291 291 290 289 288
302 307 306 311 313 313 312 312 313 312 311 310 310 308 307 307 305 303 302 301 300 298 297 296 296 295 295 295 295 294 294 294 294 293 292 291 292 292 291 291 290 289 288 288
306 302 302 306 313 313 312 311 313 313 311 311 309 304 305 307 306 302 301 300 298 297 296 296 296 295 295 294 294 294 294 294 293 293 292 292 291 291 290 289 289 288 287 287
298 299 305 306 312 313 310 309 314 313 312 310 307 308 308 306 302 301 300 298 297 297 296 296 295 295 294 294 294 294 294 293 292 292 291 291 291 290 290 289 288 287 287 286
302 300 308 309 312 310 309 314 314 313 312 310 309 309 306 305 301 300 298 298 297 296 296 294 294 294 294 293 294 293 293 293 291 291 290 290 289 289 288 288 287 287 286 285
309 309 308 312 313 313 313 314 314 312 311 310 307 307 306 302 300 298 297 296 296 295 294 293 293 292 293 293 293 292 292 292 291 290 289 289 289 289 288 287 287 286 285 284
310 311 311 313 313 313 314 314 313 312 310 308 306 307 301 299 298 297 296 296 295 293 292 291 290 291 292 292 291 291 292 292 291 289 288 287 287 287 287 287 286 285 284 283
308 311 313 314 314 314 314 313 311 310 309 307 305 301 299 298 297 296 295 294 293 291 290 290 290 290 290 290 291 291 291 291 291 288 287 286 286 287 287 287 286 284 283 283
310 312 311 312 313 313 312 311 311 310 304 302 301 299 297 296 296 295 294 292 290 290 290 290 290 290 289 289 289 290 290 291 290 289 287 286 286 286 286 286 284 283 283 282
313 314 314 314 313 312 311 308 309 307 302 301 297 297 296 295 294 293 290 290 290 290 290 290 290 290 289 289 289 290 290 290 289 288 287 287 286 285 284 284 283 283 282 282
313 313 313 312 311 310 308 305 303 301 299 298 297 296 295 293 291 290 290 290 290 290 290 290 290 290 289 289 289 290 288 288 288 287 287 287 286 284 283 283 283 282 282 281
312 313 312 312 309 306 304 302 300 297 297 296 296 295 293 290 290 290 290 290 290 290 290 289 289 289 289 289 288 289 288 288 287 287 287 286 285 284 283 283 282 282 282 281
313 311 310 309 305 304 302 300 298 297 297 296 295 292 290 290 290 291 290 290 290 290 290 289 289 289 289 289 289 289 288 287 287 286 286 285 284 284 283 282 282 282 282 281
310 308 307 303 302 299 299 297 297 296 295 293 291 291 291 291 291 291 291 290 290 290 289 289 288 288 289 289 289 289 288 287 286 285 285 284 284 283 283 282 282 282 282 281
309 306 303 300 298 299 298 296 295 294 292 290 291 291 291 291 291 290 290 290 290 289 288 288 289 289 289 289 288 289 288 287 286 284 284 283 283 283 283 283 282 282 282 281
305 302 299 299 298 295 295 294 292 290 290 291 291 291 291 290 290 291 291 290 288 288 288 288 289 289 288 289 289 289 288 287 285 284 283 283 283 283 283 283 282 282 282 281
300 299 296 294 294 294 291 289 290 290 291 291 290 291 290 291 291 291 291 289 289 289 289 288 288 288 288 288 288 288 288 287 286 286 284 283 283 283 283 283 283 282 282 282
295 294 294 293 290 290 290 290 290 290 290 291 291 291 291 291 291 291 290 290 290 289 288 287 287 287 287 287 288 288 288 287 286 286 285 285 284 283 283 283 283 283 282 281
294 294 293 291 290 290 290 290 290 290 291 292 292 292 292 292 292 291 291 290 289 288 288 287 287 287 287 287 287 287 287 287 287 286 286 285 284 284 283 283 283 283 282 281
293 293 293 292 291 291 290 290 291 291 292 292 293 293 293 292 292 292 291 290 288 288 287 287 287 286 287 287 287 287 287 287 287 287 287 286 285 284 283 282 283 282 282 281
293 292 291 291 291 291 291 291 292 292 292 291 292 292 292 292 292 291 289 288 287 287 287 286 286 286 286 287 287 287 287 287 287 287 288 287 287 286 284 283 283 283 283 282
292 291 292 292 292 291 291 291 291 291 291 291 291 291 292 291 291 290 288 287 286 286 286 286 286 286 286 286 287 287 287 287 287 287 288 287 287 287 286 285 283 283 283 282
292 293 292 292 292 291 291 291 291 291 291 290 290 289 289 289 289 288 287 286 286 286 286 286 286 285 285 285 286 286 286 286 286 287 287 287 287 287 287 286 284 282 282 282
293 292 293 293 292 292 292 291 291 291 291 291 291 289 289 289 288 287 287 287 286 285 284 284 284 285 284 284 285 284 284 285 285 285 286 287 286 286 286 286 284 283 282 281